Location: Eitze
(52.9840°N, 9.6894°E)
Time: 00:16:13
(UTC+00:00)

Cosmos 1842 - Pass Details

Date: 19 May 2025
Orbit: 439 x 450 km, 82.5° (Epoch: 22 June)

Event Time Altitude Azimuth Distance (km) Brightness Sun altitude
Exits shadow 23:40:03 21° 248° (WSW) 1,083 4.5 -16.9°
Maximum altitude 23:41:32 29° 289° (WNW) 871 4.4 -16.8°
Drops below altitude 10° 23:44:38 10° 352° (N) 1,602 6.9 -16.8°
Sets 23:46:54 0° 4° (N) 2,482 8.5 -16.8°
